,,,PA_Meas_PMT16A,,PR_Meas_QMR101_102,,RH_Meas_QMH101,,SR_Meas_QMS101,,TA_Meas_QMH101,,GenWind,,GenWind,
date,time,status,PA,status,PR,status,RH,status,SR,status,TA,status,DirAvg,status,SpdAvg,
2009-04-03, 00:00:04,VALID,1004.73,VALID,0,VALID,90.242,VALID,0,VALID,24.638,VALID,355,VALID,0.361719,
2009-04-03, 00:01:04,VALID,1004.7,VALID,0,VALID,90.2497,VALID,0,VALID,24.6574,VALID,355,VALID,0.298438,
2009-04-03, 00:02:04,VALID,1004.69,VALID,0,VALID,90.242,VALID,0,VALID,24.6556,VALID,357,VALID,0.325391,
2009-04-03, 00:03:04,VALID,1004.69,VALID,0,VALID,90.2115,VALID,0,VALID,24.675,VALID,357,VALID,0.186719,
2009-04-03, 00:04:04,VALID,1004.63,VALID,0,VALID,90.1429,VALID,0.100563,VALID,24.714,VALID,357,VALID,0.359375,
2009-04-03, 00:05:04,VALID,1004.61,VALID,0,VALID,90.0132,VALID,0,VALID,24.7335,VALID,357,VALID,0.329297,
2009-04-03, 00:06:04,VALID,1004.61,VALID,0,VALID,89.8758,VALID,0,VALID,24.8113,VALID,357,VALID,0.0628906,
2009-04-03, 00:07:04,VALID,1004.59,VALID,0,VALID,89.6012,VALID,0.100563,VALID,24.8503,VALID,6,VALID,0.0984375,
2009-04-03, 00:08:04,VALID,1004.55,VALID,0,VALID,89.4181,VALID,0,VALID,24.8911,VALID,6,VALID,0.180859,
2009-04-03, 00:09:04,VALID,1004.57,VALID,0,VALID,89.2884,VALID,0,VALID,24.9087,VALID,6,VALID,0.167578,
2009-04-03, 00:10:04,VALID,1004.55,VALID,0,VALID,89.0901,VALID,0,VALID,24.8892,VALID,6,VALID,0.173828,
2009-04-03, 00:11:04,VALID,1004.54,VALID,0,VALID,89.0138,VALID,0,VALID,24.8892,VALID,6,VALID,0.261328,
2009-04-03, 00:12:04,VALID,1004.51,VALID,0,VALID,89.029,VALID,0,VALID,24.8697,VALID,6,VALID,0.316797,
2009-04-03, 00:13:04,VALID,1004.52,VALID,0,VALID,89.0214,VALID,0,VALID,24.8503,VALID,6,VALID,0.441016,
2009-04-03, 00:14:04,VALID,1004.51,VALID,0,VALID,89.1358,VALID,0,VALID,24.8503,VALID,5,VALID,0.351563,
2009-04-03, 00:15:04,VALID,1004.5,VALID,0,VALID,89.1816,VALID,0,VALID,24.8503,VALID,5,VALID,0.259375,
2009-04-03, 00:16:04,VALID,1004.5,VALID,0,VALID,89.3113,VALID,0,VALID,24.8522,VALID,5,VALID,0.417578,
2009-04-03, 00:17:04,VALID,1004.49,VALID,0,VALID,89.4563,VALID,0,VALID,24.7919,VALID,5,VALID,0.346484,
2009-04-03, 00:18:04,VALID,1004.47,VALID,0,VALID,89.6622,VALID,0,VALID,24.7529,VALID,360,VALID,0.697266,
2009-04-03, 00:19:04,VALID,1004.5,VALID,0,VALID,89.7767,VALID,0,VALID,24.7335,VALID,358,VALID,0.611328,
2009-04-03, 00:20:04,VALID,1004.48,VALID,0,VALID,89.8682,VALID,0,VALID,24.714,VALID,358,VALID,0.478516,
2009-04-03, 00:21:04,VALID,1004.47,VALID,0,VALID,89.9521,VALID,0,VALID,24.6964,VALID,358,VALID,0.292188,
2009-04-03, 00:22:04,VALID,1004.47,VALID,0,VALID,90.12,VALID,0,VALID,24.638,VALID,358,VALID,0.301953,
2009-04-03, 00:23:04,VALID,1004.46,VALID,0,VALID,90.2725,VALID,0,VALID,24.6166,VALID,358,VALID,0.298047,
2009-04-03, 00:24:04,VALID,1004.46,VALID,0,VALID,90.4099,VALID,0,VALID,24.5796,VALID,358,VALID,0.292578,
2009-04-03, 00:25:04,VALID,1004.48,VALID,0,VALID,90.5624,VALID,0,VALID,24.5601,VALID,358,VALID,0.175781,
2009-04-03, 00:26:04,VALID,1004.51,VALID,0,VALID,90.7074,VALID,0.100563,VALID,24.5193,VALID,358,VALID,0.261719,
2009-04-03, 00:27:04,VALID,1004.52,VALID,0,VALID,90.776,VALID,0.100563,VALID,24.4998,VALID,358,VALID,0.361328,
2009-04-03, 00:28:04,VALID,1004.51,VALID,0,VALID,90.8829,VALID,0,VALID,24.5017,VALID,358,VALID,0.320313,
2009-04-03, 00:29:04,VALID,1004.54,VALID,0,VALID,91.0049,VALID,0,VALID,24.4025,VALID,358,VALID,0.324609,
2009-04-03, 00:30:04,VALID,1004.53,VALID,0,VALID,91.1041,VALID,0,VALID,24.4238,VALID,358,VALID,0.278125,
2009-04-03, 00:31:04,VALID,1004.52,VALID,0,VALID,91.2262,VALID,0,VALID,24.383,VALID,358,VALID,0.342578,
2009-04-03, 00:32:04,VALID,1004.51,VALID,0,VALID,91.3711,VALID,0.100563,VALID,24.3654,VALID,358,VALID,0.282031,
2009-04-03, 00:33:04,VALID,1004.5,VALID,0,VALID,91.4779,VALID,0,VALID,24.3246,VALID,358,VALID,0.198828,
2009-04-03, 00:34:04,VALID,1004.47,VALID,0,VALID,91.5466,VALID,0,VALID,24.3052,VALID,358,VALID,0.360938,
2009-04-03, 00:35:04,VALID,1004.45,VALID,0,VALID,91.6763,VALID,0.100563,VALID,24.307,VALID,358,VALID,0.255469,
2009-04-03, 00:36:04,VALID,1004.46,VALID,0,VALID,91.8136,VALID,0,VALID,24.2662,VALID,358,VALID,0.258203,
2009-04-03, 00:37:04,VALID,1004.46,VALID,0,VALID,91.8365,VALID,0,VALID,24.2468,VALID,358,VALID,0.362109,
2009-04-03, 00:38:04,VALID,1004.42,VALID,0,VALID,91.9585,VALID,0,VALID,24.2273,VALID,358,VALID,0.340625,
2009-04-03, 00:39:04,VALID,1004.44,VALID,0,VALID,91.989,VALID,0.100563,VALID,24.2273,VALID,358,VALID,0.33125,
2009-04-03, 00:40:04,VALID,1004.44,VALID,0,VALID,92.0653,VALID,0.100563,VALID,24.2486,VALID,358,VALID,0.378906,
2009-04-03, 00:41:04,VALID,1004.43,VALID,0,VALID,92.1798,VALID,0,VALID,24.2291,VALID,357,VALID,0.560547,
2009-04-03, 00:42:04,VALID,1004.4,VALID,0,VALID,92.2255,VALID,0,VALID,24.2097,VALID,358,VALID,0.567969,
2009-04-03, 00:43:04,VALID,1004.42,VALID,0,VALID,92.3018,VALID,0,VALID,24.2078,VALID,358,VALID,0.348828,
2009-04-03, 00:44:04,VALID,1004.4,VALID,0,VALID,92.2637,VALID,0,VALID,24.2486,VALID,359,VALID,0.589453,
2009-04-03, 00:45:04,VALID,1004.41,VALID,0,VALID,92.2179,VALID,0,VALID,24.2291,VALID,358,VALID,0.494531,
2009-04-03, 00:46:04,VALID,1004.38,VALID,0,VALID,92.2561,VALID,0,VALID,24.2291,VALID,357,VALID,0.566016,
2009-04-03, 00:47:04,VALID,1004.38,VALID,0,VALID,92.2866,VALID,0,VALID,24.2486,VALID,345,VALID,0.583984,
2009-04-03, 00:48:04,VALID,1004.39,VALID,0,VALID,92.2789,VALID,0,VALID,24.2486,VALID,355,VALID,0.557422,
2009-04-03, 00:49:04,VALID,1004.38,VALID,0,VALID,92.2332,VALID,0,VALID,24.2291,VALID,349,VALID,0.637109,
2009-04-03, 00:50:04,VALID,1004.4,VALID,0,VALID,92.2484,VALID,0,VALID,24.2273,VALID,349,VALID,0.360938,
2009-04-03, 00:51:04,VALID,1004.39,VALID,0,VALID,92.2103,VALID,0,VALID,24.2291,VALID,349,VALID,0.275391,
2009-04-03, 00:52:04,VALID,1004.39,VALID,0,VALID,92.195,VALID,0,VALID,24.2291,VALID,349,VALID,0.317578,
2009-04-03, 00:53:04,VALID,1004.39,VALID,0,VALID,92.2408,VALID,0,VALID,24.2097,VALID,349,VALID,0.332812,
2009-04-03, 00:54:04,VALID,1004.38,VALID,0,VALID,92.2942,VALID,0,VALID,24.1902,VALID,349,VALID,0.319531,
2009-04-03, 00:55:04,VALID,1004.41,VALID,0,VALID,92.3629,VALID,0,VALID,24.1494,VALID,349,VALID,0.322656,
2009-04-03, 00:56:04,VALID,1004.4,VALID,0,VALID,92.4315,VALID,0,VALID,24.1707,VALID,349,VALID,0.351953,
2009-04-03, 00:57:04,VALID,1004.37,VALID,0,VALID,92.4925,VALID,0,VALID,24.1513,VALID,349,VALID,0.384766,
2009-04-03, 00:58:04,VALID,1004.36,VALID,0,VALID,92.5612,VALID,0,VALID,24.1513,VALID,349,VALID,0.359375,
2009-04-03, 00:59:04,VALID,1004.37,VALID,0,VALID,92.5765,VALID,0,VALID,24.1318,VALID,349,VALID,0.336719,
2009-04-03, 01:00:04,VALID,1004.34,VALID,0,VALID,92.6451,VALID,0,VALID,24.1123,VALID,349,VALID,0.371094,
2009-04-03, 01:01:04,VALID,1004.34,VALID,0,VALID,92.6985,VALID,0,VALID,24.0929,VALID,349,VALID,0.455078,
2009-04-03, 01:02:04,VALID,1004.32,VALID,0,VALID,92.7672,VALID,0,VALID,24.1123,VALID,349,VALID,0.487891,
2009-04-03, 01:03:04,VALID,1004.32,VALID,0,VALID,92.7519,VALID,0,VALID,24.0929,VALID,349,VALID,0.325391,
2009-04-03, 01:04:04,VALID,1004.33,VALID,0,VALID,92.7596,VALID,0,VALID,24.0929,VALID,349,VALID,0.415625,
2009-04-03, 01:05:04,VALID,1004.31,VALID,0,VALID,92.7138,VALID,0,VALID,24.0734,VALID,349,VALID,0.40625,
2009-04-03, 01:06:04,VALID,1004.32,VALID,0,VALID,92.7138,VALID,0,VALID,24.0539,VALID,349,VALID,0.316406,
2009-04-03, 01:07:04,VALID,1004.27,VALID,0,VALID,92.7901,VALID,0,VALID,24.0557,VALID,349,VALID,0.388281,
2009-04-03, 01:08:04,VALID,1004.26,VALID,0,VALID,92.8282,VALID,0,VALID,24.015,VALID,349,VALID,0.302734,
2009-04-03, 01:09:04,VALID,1004.25,VALID,0,VALID,92.874,VALID,0,VALID,23.9742,VALID,349,VALID,0.441797,
2009-04-03, 01:10:04,VALID,1004.23,VALID,0,VALID,92.9579,VALID,0,VALID,23.9955,VALID,349,VALID,0.373437,
2009-04-03, 01:11:04,VALID,1004.22,VALID,0,VALID,92.9732,VALID,0.100563,VALID,23.9742,VALID,349,VALID,0.271875,
2009-04-03, 01:12:04,VALID,1004.21,VALID,0,VALID,93.0266,VALID,0.100563,VALID,23.9724,VALID,349,VALID,0.394141,
2009-04-03, 01:13:04,VALID,1004.17,VALID,0,VALID,93.0723,VALID,0.100563,VALID,23.9548,VALID,349,VALID,0.353906,
2009-04-03, 01:14:04,VALID,1004.16,VALID,0,VALID,93.1257,VALID,0.100563,VALID,23.953,VALID,349,VALID,0.132031,
2009-04-03, 01:15:04,VALID,1004.17,VALID,0,VALID,93.202,VALID,0.100563,VALID,23.9742,VALID,349,VALID,0.250781,
2009-04-03, 01:16:04,VALID,1004.14,VALID,0,VALID,93.2097,VALID,0.100563,VALID,23.9548,VALID,349,VALID,0.322656,
2009-04-03, 01:17:04,VALID,1004.12,VALID,0,VALID,93.202,VALID,0.100563,VALID,23.9353,VALID,349,VALID,0.2,
2009-04-03, 01:18:04,VALID,1004.09,VALID,0,VALID,93.1791,VALID,0.100563,VALID,23.9159,VALID,349,VALID,0,
2009-04-03, 01:19:04,VALID,1004.08,VALID,0,VALID,93.1334,VALID,0.100563,VALID,23.9159,VALID,349,VALID,0,
2009-04-03, 01:20:04,VALID,1004.08,VALID,0,VALID,93.1563,VALID,0.100563,VALID,23.8964,VALID,349,VALID,0.218359,
2009-04-03, 01:21:04,VALID,1004.05,VALID,0,VALID,93.2249,VALID,0,VALID,23.8964,VALID,349,VALID,0.341797,
2009-04-03, 01:22:04,VALID,1004.05,VALID,0,VALID,93.2173,VALID,0.100563,VALID,23.9159,VALID,349,VALID,0.175781,
2009-04-03, 01:23:04,VALID,1004.06,VALID,0,VALID,93.2402,VALID,0.100563,VALID,23.9353,VALID,349,VALID,0.162109,
2009-04-03, 01:24:04,VALID,1004.06,VALID,0,VALID,93.1944,VALID,0.100563,VALID,23.914,VALID,349,VALID,0.255078,
2009-04-03, 01:25:04,VALID,1004.01,VALID,0,VALID,93.0952,VALID,0.100563,VALID,23.9353,VALID,349,VALID,0.0859375,
2009-04-03, 01:26:04,VALID,1004.03,VALID,0,VALID,93.1486,VALID,0,VALID,23.9159,VALID,349,VALID,0.105469,
2009-04-03, 01:27:04,VALID,1004,VALID,0,VALID,93.1791,VALID,0,VALID,23.9566,VALID,349,VALID,0.225781,
2009-04-03, 01:28:04,VALID,1004.01,VALID,0,VALID,93.2936,VALID,0,VALID,23.9548,VALID,355,VALID,0.568359,
2009-04-03, 01:29:04,VALID,1003.98,VALID,0,VALID,93.3165,VALID,0,VALID,24.0132,VALID,360,VALID,0.292188,
2009-04-03, 01:30:04,VALID,1003.96,VALID,0,VALID,93.3012,VALID,0,VALID,24.0734,VALID,38,VALID,0.565234,
2009-04-03, 01:31:04,VALID,1003.96,VALID,0,VALID,93.1868,VALID,0,VALID,24.1105,VALID,20,VALID,0.512109,
2009-04-03, 01:32:04,VALID,1003.92,VALID,0,VALID,93.2097,VALID,0,VALID,24.2291,VALID,21,VALID,0.515234,
2009-04-03, 01:33:04,VALID,1003.97,VALID,0,VALID,93.1029,VALID,0,VALID,24.3265,VALID,28,VALID,0.821094,
2009-04-03, 01:34:04,VALID,1003.92,VALID,0,VALID,92.8969,VALID,0,VALID,24.4609,VALID,42,VALID,0.527734,
2009-04-03, 01:35:04,VALID,1003.94,VALID,0,VALID,92.5002,VALID,0,VALID,24.5212,VALID,21,VALID,0.548047,
2009-04-03, 01:36:04,VALID,1003.94,VALID,0,VALID,92.1798,VALID,0,VALID,24.6185,VALID,27,VALID,0.374219,
2009-04-03, 01:37:04,VALID,1003.89,VALID,0,VALID,91.7831,VALID,0,VALID,24.6574,VALID,27,VALID,0.442187,
2009-04-03, 01:38:04,VALID,1003.89,VALID,0,VALID,91.5466,VALID,0,VALID,24.7353,VALID,24,VALID,0.497266,
2009-04-03, 01:39:04,VALID,1003.9,VALID,0,VALID,91.1728,VALID,0,VALID,24.7548,VALID,24,VALID,0.284766,
2009-04-03, 01:40:04,VALID,1003.9,VALID,0,VALID,91.0965,VALID,0,VALID,24.7743,VALID,13,VALID,1.05391,
2009-04-03, 01:41:04,VALID,1003.89,VALID,0,VALID,90.7226,VALID,0,VALID,24.8911,VALID,26,VALID,0.534375,
2009-04-03, 01:42:04,VALID,1003.9,VALID,0,VALID,90.2268,VALID,0,VALID,24.969,VALID,28,VALID,0.706641,
2009-04-03, 01:43:04,VALID,1003.89,VALID,0,VALID,89.9064,VALID,0,VALID,24.9671,VALID,28,VALID,0.305469,
2009-04-03, 01:44:04,VALID,1003.87,VALID,0,VALID,89.6699,VALID,0,VALID,25.006,VALID,28,VALID,0.347266,
2009-04-03, 01:45:04,VALID,1003.87,VALID,0,VALID,89.4639,VALID,0,VALID,25.0255,VALID,28,VALID,0.0867188,
2009-04-03, 01:46:04,VALID,1003.91,VALID,0,VALID,89.2808,VALID,0,VALID,25.0469,VALID,28,VALID,0.00078125,
2009-04-03, 01:47:04,VALID,1003.91,VALID,0,VALID,89.2121,VALID,0,VALID,25.0274,VALID,28,VALID,0.165625,
2009-04-03, 01:48:04,VALID,1003.92,VALID,0,VALID,89.2045,VALID,0,VALID,25.006,VALID,28,VALID,0.147656,
2009-04-03, 01:49:04,VALID,1003.93,VALID,0,VALID,89.174,VALID,0,VALID,25.006,VALID,28,VALID,0.170312,
2009-04-03, 01:50:04,VALID,1003.91,VALID,0,VALID,89.0901,VALID,0,VALID,25.0079,VALID,28,VALID,0.252344,
2009-04-03, 01:51:04,VALID,1003.94,VALID,0,VALID,89.1282,VALID,0,VALID,24.969,VALID,28,VALID,0,
2009-04-03, 01:52:04,VALID,1003.94,VALID,0,VALID,89.0443,VALID,0,VALID,24.9282,VALID,28,VALID,0,
2009-04-03, 01:53:04,VALID,1003.95,VALID,0,VALID,89.1282,VALID,0,VALID,24.9106,VALID,28,VALID,0,
2009-04-03, 01:54:04,VALID,1003.95,VALID,0,VALID,89.113,VALID,0,VALID,24.8503,VALID,28,VALID,0.00273437,
2009-04-03, 01:55:04,VALID,1003.95,VALID,0,VALID,89.1969,VALID,0,VALID,24.8522,VALID,28,VALID,0.332422,
2009-04-03, 01:56:04,VALID,1003.96,VALID,0,VALID,89.3189,VALID,0,VALID,24.7937,VALID,28,VALID,0.24375,
2009-04-03, 01:57:04,VALID,1003.97,VALID,0,VALID,89.4715,VALID,0,VALID,24.7548,VALID,28,VALID,0.284766,
2009-04-03, 01:58:04,VALID,1003.97,VALID,0,VALID,89.6699,VALID,0,VALID,24.6964,VALID,28,VALID,0.279297,
2009-04-03, 01:59:04,VALID,1003.98,VALID,0,VALID,89.8377,VALID,0,VALID,24.638,VALID,28,VALID,0.0308594,
2009-04-03, 02:00:04,VALID,1003.96,VALID,0,VALID,90.0132,VALID,0,VALID,24.599,VALID,28,VALID,0.383594,
2009-04-03, 02:01:04,VALID,1003.96,VALID,0,VALID,90.1581,VALID,0,VALID,24.4998,VALID,28,VALID,0.00585938,
2009-04-03, 02:02:04,VALID,1003.96,VALID,0,VALID,90.3183,VALID,0,VALID,24.5017,VALID,28,VALID,0,
2009-04-03, 02:03:04,VALID,1003.99,VALID,0,VALID,90.5472,VALID,0,VALID,24.4628,VALID,28,VALID,0,
2009-04-03, 02:04:04,VALID,1003.93,VALID,0,VALID,90.6464,VALID,0,VALID,24.4025,VALID,28,VALID,0,
2009-04-03, 02:05:04,VALID,1003.92,VALID,0,VALID,90.7989,VALID,0,VALID,24.4043,VALID,28,VALID,0,
2009-04-03, 02:06:04,VALID,1003.91,VALID,0,VALID,90.8752,VALID,0,VALID,24.3654,VALID,28,VALID,0,
2009-04-03, 02:07:04,VALID,1003.88,VALID,0,VALID,91.0736,VALID,0,VALID,24.3265,VALID,28,VALID,0,
2009-04-03, 02:08:04,VALID,1003.84,VALID,0,VALID,91.1422,VALID,0,VALID,24.2662,VALID,28,VALID,0,
2009-04-03, 02:09:04,VALID,1003.85,VALID,0,VALID,91.3253,VALID,0,VALID,24.2486,VALID,28,VALID,0,
2009-04-03, 02:10:04,VALID,1003.84,VALID,0,VALID,91.4932,VALID,0,VALID,24.2486,VALID,28,VALID,0,
2009-04-03, 02:11:04,VALID,1003.83,VALID,0,VALID,91.5923,VALID,0,VALID,24.1884,VALID,28,VALID,0,
2009-04-03, 02:12:04,VALID,1003.85,VALID,0,VALID,91.7525,VALID,0,VALID,24.1707,VALID,28,VALID,0,
2009-04-03, 02:13:04,VALID,1003.83,VALID,0,VALID,91.7754,VALID,0,VALID,24.1318,VALID,28,VALID,0,
2009-04-03, 02:14:04,VALID,1003.83,VALID,0,VALID,91.8441,VALID,0,VALID,24.0929,VALID,28,VALID,0,
2009-04-03, 02:15:04,VALID,1003.84,VALID,0,VALID,92.0119,VALID,0,VALID,24.0734,VALID,28,VALID,0,
2009-04-03, 02:16:04,VALID,1003.83,VALID,0,VALID,92.073,VALID,0,VALID,24.0539,VALID,28,VALID,0,
2009-04-03, 02:17:04,VALID,1003.81,VALID,0,VALID,92.1187,VALID,0,VALID,24.0132,VALID,28,VALID,0,
2009-04-03, 02:18:04,VALID,1003.76,VALID,0,VALID,92.1569,VALID,0,VALID,24.015,VALID,28,VALID,0,
2009-04-03, 02:19:04,VALID,1003.75,VALID,0,VALID,92.3705,VALID,0,VALID,23.9937,VALID,28,VALID,0,
2009-04-03, 02:20:04,VALID,1003.74,VALID,0,VALID,92.3781,VALID,0,VALID,23.9937,VALID,28,VALID,0,
2009-04-03, 02:21:04,VALID,1003.73,VALID,0,VALID,92.3095,VALID,0,VALID,23.9566,VALID,28,VALID,0,
2009-04-03, 02:22:04,VALID,1003.75,VALID,0,VALID,92.3018,VALID,0,VALID,23.9371,VALID,28,VALID,0,
2009-04-03, 02:23:04,VALID,1003.71,VALID,0,VALID,92.546,VALID,0,VALID,23.9177,VALID,28,VALID,0,
2009-04-03, 02:24:04,VALID,1003.69,VALID,0,VALID,92.7596,VALID,0,VALID,23.8964,VALID,28,VALID,0,
2009-04-03, 02:25:04,VALID,1003.72,VALID,0,VALID,92.7901,VALID,0,VALID,23.9159,VALID,28,VALID,0,
2009-04-03, 02:26:04,VALID,1003.68,VALID,0,VALID,92.729,VALID,0,VALID,23.9177,VALID,28,VALID,0,
2009-04-03, 02:27:04,VALID,1003.72,VALID,0,VALID,92.7443,VALID,0,VALID,23.8964,VALID,28,VALID,0,
2009-04-03, 02:28:04,VALID,1003.69,VALID,0,VALID,92.9274,VALID,0,VALID,23.9177,VALID,28,VALID,0.309766,
2009-04-03, 02:29:04,VALID,1003.7,VALID,0,VALID,92.9961,VALID,0,VALID,23.9159,VALID,28,VALID,0.306641,
2009-04-03, 02:30:04,VALID,1003.71,VALID,0,VALID,92.9808,VALID,0,VALID,23.8769,VALID,28,VALID,0.285937,
2009-04-03, 02:31:04,VALID,1003.65,VALID,0,VALID,93.0189,VALID,0,VALID,23.8982,VALID,28,VALID,0.422266,
2009-04-03, 02:32:04,VALID,1003.66,VALID,0,VALID,93.1257,VALID,0,VALID,23.8769,VALID,27,VALID,0.469922,
2009-04-03, 02:33:04,VALID,1003.65,VALID,0,VALID,93.1715,VALID,0,VALID,23.8982,VALID,24,VALID,0.419141,
2009-04-03, 02:34:04,VALID,1003.64,VALID,0,VALID,93.2097,VALID,0,VALID,23.8787,VALID,15,VALID,0.496875,
2009-04-03, 02:35:04,VALID,1003.64,VALID,0,VALID,93.0952,VALID,0,VALID,23.838,VALID,4,VALID,0.296484,
2009-04-03, 02:36:04,VALID,1003.63,VALID,0,VALID,93.0723,VALID,0,VALID,23.8203,VALID,4,VALID,0.351953,
2009-04-03, 02:37:04,VALID,1003.64,VALID,0,VALID,93.0876,VALID,0,VALID,23.8203,VALID,4,VALID,0.374219,
2009-04-03, 02:38:04,VALID,1003.62,VALID,0,VALID,93.1868,VALID,0,VALID,23.7991,VALID,4,VALID,0.173828,
2009-04-03, 02:39:04,VALID,1003.65,VALID,0,VALID,93.1181,VALID,0,VALID,23.7991,VALID,4,VALID,0.217187,
2009-04-03, 02:40:04,VALID,1003.62,VALID,0,VALID,93.2707,VALID,0,VALID,23.8009,VALID,360,VALID,0.492578,
2009-04-03, 02:41:04,VALID,1003.63,VALID,0,VALID,93.3317,VALID,0,VALID,23.8398,VALID,355,VALID,0.187109,
2009-04-03, 02:42:04,VALID,1003.61,VALID,0,VALID,93.347,VALID,0,VALID,23.7991,VALID,355,VALID,0.314063,
2009-04-03, 02:43:04,VALID,1003.63,VALID,0,VALID,93.4156,VALID,0,VALID,23.8398,VALID,355,VALID,0.255078,
2009-04-03, 02:44:04,VALID,1003.64,VALID,0,VALID,93.3317,VALID,0,VALID,23.8185,VALID,355,VALID,0,
2009-04-03, 02:45:04,VALID,1003.6,VALID,0,VALID,93.3546,VALID,0,VALID,23.838,VALID,355,VALID,0,
2009-04-03, 02:46:04,VALID,1003.59,VALID,0,VALID,93.347,VALID,0,VALID,23.8185,VALID,355,VALID,0,
2009-04-03, 02:47:04,VALID,1003.59,VALID,0,VALID,93.3165,VALID,0,VALID,23.838,VALID,355,VALID,0,
2009-04-03, 02:48:04,VALID,1003.6,VALID,0,VALID,93.3851,VALID,0,VALID,23.8185,VALID,355,VALID,0,
2009-04-03, 02:49:04,VALID,1003.57,VALID,0,VALID,93.3012,VALID,0,VALID,23.8203,VALID,355,VALID,0,
2009-04-03, 02:50:04,VALID,1003.59,VALID,0,VALID,93.4004,VALID,0,VALID,23.7991,VALID,355,VALID,0,
2009-04-03, 02:51:04,VALID,1003.59,VALID,0,VALID,93.3012,VALID,0,VALID,23.7991,VALID,355,VALID,0,
2009-04-03, 02:52:04,VALID,1003.61,VALID,0,VALID,93.2859,VALID,0,VALID,23.8221,VALID,355,VALID,0,
2009-04-03, 02:53:04,VALID,1003.58,VALID,0,VALID,93.3012,VALID,0,VALID,23.7601,VALID,355,VALID,0,
2009-04-03, 02:54:04,VALID,1003.61,VALID,0,VALID,93.347,VALID,0,VALID,23.7601,VALID,355,VALID,0,
2009-04-03, 02:55:04,VALID,1003.58,VALID,0,VALID,93.4385,VALID,0,VALID,23.7814,VALID,355,VALID,0,
2009-04-03, 02:56:04,VALID,1003.56,VALID,0,VALID,93.4843,VALID,0,VALID,23.7601,VALID,354,VALID,0.125391,
2009-04-03, 02:57:04,VALID,1003.58,VALID,0,VALID,93.4767,VALID,0,VALID,23.8009,VALID,353,VALID,0.454688,
2009-04-03, 02:58:04,VALID,1003.57,VALID,0,VALID,93.5072,VALID,0,VALID,23.8203,VALID,353,VALID,0.45,
2009-04-03, 02:59:04,VALID,1003.58,VALID,0,VALID,93.5835,VALID,0,VALID,23.7991,VALID,351,VALID,0.587891,
2009-04-03, 03:00:04,VALID,1003.58,VALID,0,VALID,93.5682,VALID,0,VALID,23.8203,VALID,351,VALID,0.55625,
2009-04-03, 03:01:04,VALID,1003.58,VALID,0,VALID,93.4309,VALID,0,VALID,23.7796,VALID,351,VALID,0.436719,
2009-04-03, 03:02:04,VALID,1003.6,VALID,0,VALID,93.5377,VALID,0,VALID,23.8009,VALID,351,VALID,0.382031,
2009-04-03, 03:03:04,VALID,1003.63,VALID,0,VALID,93.4767,VALID,0,VALID,23.8009,VALID,351,VALID,0.464063,
2009-04-03, 03:04:04,VALID,1003.63,VALID,0,VALID,93.5224,VALID,0,VALID,23.7583,VALID,351,VALID,0.458594,
2009-04-03, 03:05:04,VALID,1003.64,VALID,0,VALID,93.5301,VALID,0,VALID,23.7601,VALID,351,VALID,0.138281,
2009-04-03, 03:06:04,VALID,1003.68,VALID,0,VALID,93.5148,VALID,0,VALID,23.7407,VALID,351,VALID,0,
2009-04-03, 03:07:04,VALID,1003.67,VALID,0,VALID,93.4919,VALID,0,VALID,23.7425,VALID,351,VALID,0.00859375,
2009-04-03, 03:08:04,VALID,1003.71,VALID,0,VALID,93.4614,VALID,0,VALID,23.7035,VALID,351,VALID,0.190234,
2009-04-03, 03:09:04,VALID,1003.72,VALID,0,VALID,93.4309,VALID,0,VALID,23.6628,VALID,351,VALID,0,
2009-04-03, 03:10:04,VALID,1003.71,VALID,0,VALID,93.4385,VALID,0,VALID,23.6434,VALID,351,VALID,0,
2009-04-03, 03:11:04,VALID,1003.73,VALID,0,VALID,93.469,VALID,0,VALID,23.6257,VALID,351,VALID,0,
2009-04-03, 03:12:04,VALID,1003.74,VALID,0,VALID,93.5224,VALID,0,VALID,23.585,VALID,351,VALID,0,
2009-04-03, 03:13:04,VALID,1003.78,VALID,0,VALID,93.5911,VALID,0,VALID,23.6062,VALID,351,VALID,0,
2009-04-03, 03:14:04,VALID,1003.81,VALID,0,VALID,93.6979,VALID,0,VALID,23.585,VALID,351,VALID,0,
2009-04-03, 03:15:04,VALID,1003.81,VALID,0,VALID,93.7818,VALID,0,VALID,23.6239,VALID,351,VALID,0,
2009-04-03, 03:16:04,VALID,1003.81,VALID,0,VALID,93.7666,VALID,0,VALID,23.6257,VALID,351,VALID,0,
2009-04-03, 03:17:04,VALID,1003.81,VALID,0,VALID,93.7666,VALID,0,VALID,23.6257,VALID,351,VALID,0,
2009-04-03, 03:18:04,VALID,1003.79,VALID,0,VALID,93.82,VALID,0,VALID,23.585,VALID,351,VALID,0,
2009-04-03, 03:19:04,VALID,1003.8,VALID,0,VALID,93.8886,VALID,0,VALID,23.6257,VALID,351,VALID,0,
2009-04-03, 03:20:04,VALID,1003.79,VALID,0,VALID,93.9115,VALID,0,VALID,23.6239,VALID,357,VALID,0.239453,
2009-04-03, 03:21:04,VALID,1003.79,VALID,0,VALID,93.9573,VALID,0,VALID,23.6257,VALID,358,VALID,0.135937,
2009-04-03, 03:22:04,VALID,1003.8,VALID,0,VALID,93.7437,VALID,0,VALID,23.5885,VALID,17,VALID,0.271875,
2009-04-03, 03:23:04,VALID,1003.78,VALID,0,VALID,93.7055,VALID,0,VALID,23.5284,VALID,17,VALID,0.123438,
2009-04-03, 03:24:04,VALID,1003.79,VALID,0,VALID,93.7208,VALID,0,VALID,23.5071,VALID,17,VALID,0.0359375,
2009-04-03, 03:25:04,VALID,1003.8,VALID,0,VALID,93.7589,VALID,0,VALID,23.4877,VALID,17,VALID,0.00898437,
2009-04-03, 03:26:04,VALID,1003.79,VALID,0,VALID,93.7437,VALID,0,VALID,23.4682,VALID,17,VALID,0.14375,
2009-04-03, 03:27:04,VALID,1003.81,VALID,0,VALID,93.7437,VALID,0,VALID,23.4912,VALID,17,VALID,0.0167969,
2009-04-03, 03:28:04,VALID,1003.83,VALID,0,VALID,93.8123,VALID,0,VALID,23.4505,VALID,17,VALID,0.0546875,
2009-04-03, 03:29:04,VALID,1003.81,VALID,0,VALID,93.7742,VALID,0,VALID,23.4293,VALID,17,VALID,0,
2009-04-03, 03:30:04,VALID,1003.81,VALID,0,VALID,93.7589,VALID,0,VALID,23.4098,VALID,17,VALID,0,
2009-04-03, 03:31:04,VALID,1003.79,VALID,0,VALID,93.7361,VALID,0,VALID,23.4116,VALID,17,VALID,0,
2009-04-03, 03:32:04,VALID,1003.79,VALID,0,VALID,93.7437,VALID,0,VALID,23.3514,VALID,17,VALID,0,
2009-04-03, 03:33:04,VALID,1003.82,VALID,0,VALID,93.7589,VALID,0,VALID,23.3532,VALID,17,VALID,0,
2009-04-03, 03:34:04,VALID,1003.82,VALID,0,VALID,93.7666,VALID,0,VALID,23.332,VALID,17,VALID,0,
2009-04-03, 03:35:04,VALID,1003.84,VALID,0,VALID,93.8276,VALID,0,VALID,23.3532,VALID,17,VALID,0.00898437,
2009-04-03, 03:36:04,VALID,1003.86,VALID,0,VALID,93.8581,VALID,0,VALID,23.3125,VALID,17,VALID,0.192188,
2009-04-03, 03:37:04,VALID,1003.82,VALID,0,VALID,93.9115,VALID,0,VALID,23.3337,VALID,17,VALID,0.223047,
2009-04-03, 03:38:04,VALID,1003.84,VALID,0,VALID,93.9878,VALID,0,VALID,23.3532,VALID,17,VALID,0.378516,
2009-04-03, 03:39:04,VALID,1003.87,VALID,0,VALID,94.1022,VALID,0,VALID,23.3727,VALID,17,VALID,0.5375,
2009-04-03, 03:40:04,VALID,1003.84,VALID,0,VALID,94.0488,VALID,0,VALID,23.3514,VALID,17,VALID,0.478125,
2009-04-03, 03:41:04,VALID,1003.82,VALID,0,VALID,94.209,VALID,0,VALID,23.4116,VALID,17,VALID,0.485938,
2009-04-03, 03:42:04,VALID,1003.83,VALID,0,VALID,94.2243,VALID,0,VALID,23.4505,VALID,17,VALID,0.477734,
2009-04-03, 03:43:04,VALID,1003.86,VALID,0,VALID,94.148,VALID,0,VALID,23.4311,VALID,17,VALID,0.457422,
2009-04-03, 03:44:04,VALID,1003.83,VALID,0,VALID,94.1328,VALID,0,VALID,23.4311,VALID,19,VALID,0.491406,
2009-04-03, 03:45:04,VALID,1003.85,VALID,0,VALID,94.2472,VALID,0,VALID,23.4682,VALID,19,VALID,0.330078,
2009-04-03, 03:46:04,VALID,1003.87,VALID,0,VALID,94.2472,VALID,0,VALID,23.5071,VALID,19,VALID,0.331641,
2009-04-03, 03:47:04,VALID,1003.86,VALID,0,VALID,94.3082,VALID,0,VALID,23.5478,VALID,23,VALID,0.420703,